FW9685 Weather Reports


Display with metric or nautical units.
time (UTC)temp
F
wind
direction
speed
MPH
gust
MPH
rain 1hr
in
rain 24hr
in
rain mn
in
humidity
%
barometer
mb
20260503013059 64 150 4.0 7.0 0.00 0.01 0.00 49 1021.8
20260503011606 65 146 3.0 5.0 0.00 0.01 0.00 47 1021.7
20260503010054 65 146 5.0 8.0 0.00 0.01 0.00 45 1021.8
20260503004559 65 167 3.0 7.0 0.00 0.01 0.00 44 1021.7
20260503003056 66 159 5.0 9.0 0.00 0.01 0.00 43 1021.7
20260503001554 66 153 6.0 9.0 0.00 0.01 0.00 44 1021.6
20260503000107 66 109 6.0 13.0 0.00 0.01 0.00 44 1021.7
20260502234557 67 106 3.0 9.0 0.00 0.02 0.00 43 1021.9
20260502233053 66 218 2.0 7.0 0.00 0.02 0.00 42 1021.5
20260502231615 66 173 4.0 7.0 0.00 0.02 0.00 43 1021.5
20260502230056 66 194 1.0 6.0 0.00 0.02 0.00 43 1021.5
20260502224557 65 214 6.0 11.0 0.00 0.02 0.00 43 1021.8
20260502223057 66 196 3.0 8.0 0.00 0.02 0.00 42 1021.8
20260502221558 66 125 2.0 5.0 0.00 0.02 0.00 41 1021.9
20260502220057 66 115 2.0 7.0 0.00 0.02 0.00 42 1022.2
20260502214555 65 136 6.0 13.0 0.00 0.02 0.00 43 1022.3
20260502213055 64 177 1.0 6.0 0.00 0.02 0.00 44 1022.6
20260502211556 65 133 6.0 12.0 0.00 0.02 0.00 43 1022.8
20260502210052 65 213 4.0 8.0 0.00 0.02 0.00 44 1022.9
20260502204553 65 146 3.0 9.0 0.00 0.03 0.00 45 1023.0
20260502203051 65 0 1.0 10.0 0.00 0.03 0.00 44 1023.3
20260502201559 64 155 2.0 8.0 0.00 0.03 0.00 45 1023.5
20260502200052 64 0 1.0 8.0 0.00 0.03 0.00 47 1023.8
20260502194606 64 119 5.0 9.0 0.00 0.04 0.00 47 1023.9
20260502193106 63 183 4.0 9.0 0.00 0.04 0.00 48 1024.1
20260502191600 63 153 7.0 10.0 0.00 0.04 0.00 47 1023.9
20260502190054 63 161 2.0 8.0 0.00 0.04 0.00 47 1024.0
20260502184602 62 116 1.0 9.0 0.00 0.05 0.00 50 1024.3
20260502183053 62 92 2.0 10.0 0.00 0.05 0.00 50 1024.3
20260502181552 63 112 5.0 13.0 0.00 0.05 0.00 51 1024.5
20260502163056 60 163 3.0 8.0 0.00 0.10 0.00 55 1025.2
20260502161624 60 83 4.0 9.0 0.00 0.10 0.00 54 1025.3
20260502160127 60 137 1.0 6.0 0.00 0.10 0.00 57 1025.3
20260502151555 57 225 3.0 6.0 0.00 0.12 0.00 60 1025.1
20260502130112 50 298 2.0 4.0 0.00 0.13 0.00 83 1024.1
20260502123120 49 280 2.0 4.0 0.00 0.13 0.00 84 1023.6
20260502121552 49 280 3.0 4.0 0.00 0.13 0.00 83 1023.6
20260502120124 49 281 3.0 6.0 0.00 0.13 0.00 83 1023.3
20260502114556 49 302 2.0 4.0 0.00 0.13 0.00 82 1023.2
20260502113051 49 303 3.0 5.0 0.00 0.13 0.00 82 1023.1
20260502111554 50 303 3.0 4.0 0.00 0.13 0.00 82 1023.0
20260502110053 50 303 3.0 4.0 0.00 0.13 0.00 81 1023.0
20260502104555 51 304 3.0 5.0 0.00 0.14 0.00 81 1023.0
20260502103051 51 283 3.0 4.0 0.00 0.14 0.00 80 1022.8
20260502101559 52 269 2.0 4.0 0.00 0.14 0.00 80 1022.5
20260502070059 54 103 4.0 7.0 0.00 0.17 0.00 71 1022.3
20260502064558 54 74 2.0 3.0 0.00 0.18 0.00 74 1022.3
20260502063106 54 59 0.0 4.0 0.00 0.18 0.00 76 1022.2
20260502061602 54 0 1.0 2.0 0.00 0.18 0.00 77 1022.1
20260502060127 54 57 2.0 5.0 0.00 0.18 0.00 77 1022.1
20260502054557 55 71 2.0 5.0 0.00 0.19 0.00 76 1021.7
20260502053056 54 67 3.0 4.0 0.00 0.19 0.00 76 1021.9
20260502051557 55 67 2.0 4.0 0.00 0.19 0.00 74 1022.0
20260502050054 55 67 1.0 3.0 0.00 0.19 0.00 74 1021.9
20260502044553 55 60 3.0 4.0 0.00 0.20 0.19 74 1021.6
20260502043057 55 51 3.0 5.0 0.00 0.20 0.19 74 1021.7
20260502041556 54 51 3.0 5.0 0.01 0.20 0.19 75 1021.4
20260502040104 54 51 4.0 6.0 0.01 0.20 0.19 74 1021.0
20260502034603 54 63 4.0 7.0 0.01 0.21 0.19 74 1020.9
20260502033053 55 51 4.0 9.0 0.01 0.21 0.19 73 1020.7
20260502031555 55 63 6.0 10.0 0.00 0.20 0.18 73 1020.6
20260502030057 55 29 8.0 14.0 0.00 0.20 0.18 71 1020.6
20260502024610 55 32 8.0 11.0 0.00 0.20 0.18 69 1020.4
20260502023059 55 50 7.0 11.0 0.00 0.20 0.18 66 1020.2
20260502021606 56 51 7.0 12.0 0.00 0.20 0.18 66 1020.0
20260502020052 56 69 9.0 13.0 0.00 0.20 0.18 67 1019.4
20260502014551 55 51 8.0 15.0 0.00 0.20 0.18 66 1019.5